QPF
0.00 0.00 0.00 0.00 0.00 0.00 0.00 0.02 0.05 0.04 0.01 0.00 0.00 0.02 0.05 0.08 0.13 0.05 0.00 0.00 0.00 0.00 0.00 0.00 0.00 0.00 0.00 0.00 0.00 0.00 0.00 0.00 0.00 0.00 0.00 0.00 0.00 0.00 0.00 0.00 0.00 0.00 0.00
0.00 0.00 0.00 0.00 0.00 0.00 0.00 0.01 0.02 0.03 0.04 0.00 0.01 0.01 0.02 0.05 0.10 0.06 0.00 0.00 0.00 0.00 0.00 0.00 0.00 0.00 0.00 0.00 0.00 0.00 0.00 0.00 0.00 0.00 0.00 0.00 0.00 0.00 0.00 0.00 0.00 0.00 0.00
0.00 0.00 0.00 0.00 0.00 0.00 0.00 0.00 0.00 0.01 0.02 0.01 0.00 0.00 0.01 0.04 0.08 0.04 0.00 0.00 0.00 0.00 0.00 0.00 0.00 0.00 0.00 0.00 0.00 0.00 0.00 0.00 0.00 0.00 0.00 0.00 0.00 0.00 0.00 0.00 0.00 0.00 0.00
0.00 0.00 0.00 0.00 0.00 0.00 0.00 0.01 0.01 0.01 0.01 0.01 0.02 0.01 0.01 0.04 0.07 0.06 0.00 0.00 0.00 0.00 0.00 0.00 0.00 0.00 0.00 0.00 0.00 0.00 0.00 0.00 0.00 0.00 0.00 0.00 0.00 0.00 0.00 0.00 0.00 0.00 0.00
0.00 0.00 0.00 0.00 0.00 0.00 0.00 0.00 0.01 0.01 0.01 0.01 0.01 0.02 0.02 0.01 0.04 0.05 0.02 0.00 0.00 0.00 0.00 0.00 0.00 0.00 0.00 0.00 0.00 0.00 0.00 0.00 0.00 0.00 0.00 0.00 0.00 0.00 0.00 0.00 0.00 0.00 0.00
0.00 0.00 0.00 0.00 0.00 0.00 0.00 0.00 0.01 0.01 0.02 0.02 0.01 0.01 0.01 0.01 0.01 0.03 0.02 0.00 0.00 0.00 0.00 0.00 0.00 0.00 0.00 0.00 0.00 0.00 0.00 0.00 0.00 0.00 0.00 0.00 0.00 0.00 0.00 0.00 0.00 0.00 0.00
0.00 0.00 0.00 0.00 0.00 0.00 0.00 0.01 0.01 0.01 0.01 0.03 0.03 0.02 0.02 0.01 0.00 0.01 0.01 0.00 0.00 0.00 0.00 0.00 0.00 0.00 0.00 0.00 0.00 0.00 0.00 0.00 0.00 0.00 0.00 0.00 0.00 0.00 0.00 0.00 0.00 0.00 0.00
0.00 0.00 0.00 0.00 0.00 0.00 0.00 0.01 0.01 0.02 0.01 0.01 0.02 0.01 0.01 0.01 0.00 0.00 0.00 0.00 0.00 0.00 0.00 0.00 0.00 0.00 0.00 0.00 0.00 0.00 0.00 0.00 0.00 0.00 0.00 0.00 0.00 0.00 0.00 0.00 0.00 0.00 0.00
0.00 0.00 0.01 0.01 0.01 0.00 0.00 0.00 0.01 0.01 0.01 0.00 0.01 0.00 0.00 0.00 0.00 0.00 0.00 0.00 0.00 0.00 0.00 0.00 0.00 0.00 0.00 0.00 0.00 0.00 0.00 0.00 0.00 0.00 0.00 0.00 0.00 0.00 0.00 0.00 0.00 0.00 0.00
0.00 0.01 0.02 0.04 0.02 0.01 0.00 0.00 0.00 0.01 0.01 0.01 0.00 0.00 0.00 0.00 0.00 0.00 0.00 0.00 0.00 0.00 0.00 0.00 0.00 0.00 0.00 0.00 0.00 0.00 0.00 0.00 0.00 0.00 0.00 0.00 0.00 0.00 0.00 0.00 0.00 0.00 0.00
0.02 0.06 0.03 0.03 0.02 0.01 0.01 0.01 0.01 0.00 0.00 0.00 0.00 0.00 0.00 0.00 0.00 0.00 0.00 0.00 0.00 0.00 0.00 0.00 0.00 0.00 0.00 0.00 0.00 0.00 0.00 0.00 0.00 0.00 0.00 0.00 0.00 0.00 0.00 0.00 0.00 0.00 0.00
0.01 0.02 0.05 0.03 0.02 0.01 0.01 0.01 0.01 0.01 0.00 0.01 0.00 0.00 0.00 0.00 0.00 0.00 0.00 0.00 0.00 0.00 0.00 0.00 0.00 0.00 0.00 0.00 0.00 0.00 0.00 0.00 0.00 0.00 0.00 0.00 0.00 0.00 0.00 0.00 0.00 0.00 0.00
0.00 0.01 0.02 0.00 0.01 0.01 0.01 0.01 0.01 0.01 0.01 0.01 0.00 0.00 0.00 0.00 0.00 0.00 0.00 0.00 0.00 0.00 0.00 0.00 0.00 0.00 0.00 0.00 0.00 0.00 0.00 0.00 0.00 0.00 0.00 0.00 0.00 0.00 0.00 0.00 0.00 0.00 0.00
0.01 0.00 0.00 0.00 0.00 0.00 0.01 0.01 0.00 0.01 0.01 0.01 0.00 0.00 0.00 0.00 0.00 0.00 0.00 0.00 0.00 0.00 0.00 0.00 0.00 0.00 0.00 0.00 0.00 0.00 0.00 0.00 0.00 0.00 0.00 0.00 0.00 0.00 0.00 0.00 0.00 0.00 0.00
0.02 0.00 0.00 0.00 0.00 0.00 0.00 0.01 0.01 0.01 0.01 0.00 0.01 0.00 0.00 0.00 0.00 0.00 0.00 0.00 0.00 0.00 0.00 0.00 0.00 0.00 0.00 0.00 0.00 0.00 0.00 0.00 0.00 0.00 0.00 0.00 0.00 0.00 0.00 0.00 0.00 0.00 0.00
0.01 0.00 0.00 0.00 0.00 0.00 0.01 0.01 0.01 0.01 0.01 0.00 0.00 0.00 0.00 0.00 0.00 0.00 0.01 0.00 0.00 0.00 0.00 0.00 0.00 0.00 0.00 0.00 0.00 0.00 0.00 0.01 0.00 0.00 0.01 0.00 0.00 0.00 0.00 0.00 0.00 0.00 0.00
0.00 0.00 0.00 0.00 0.00 0.00 0.00 0.01 0.01 0.00 0.00 0.01 0.00 0.00 0.00 0.00 0.00 0.02 0.01 0.01 0.00 0.00 0.00 0.00 0.00 0.00 0.00 0.01 0.02 0.02 0.03 0.01 0.00 0.02 0.04 0.02 0.02 0.01 0.01 0.00 0.00 0.00 0.00
0.00 0.00 0.00 0.00 0.00 0.00 0.00 0.00 0.00 0.00 0.00 0.00 0.00 0.00 0.00 0.00 0.00 0.00 0.02 0.01 0.00 0.00 0.00 0.00 0.00 0.00 0.01 0.04 0.03 0.03 0.03 0.03 0.01 0.02 0.03 0.02 0.01 0.00 0.00 0.00 0.00 0.00 0.00
0.00 0.00 0.00 0.00 0.00 0.00 0.00 0.00 0.00 0.01 0.01 0.00 0.00 0.00 0.00 0.00 0.00 0.00 0.00 0.01 0.00 0.00 0.00 0.00 0.00 0.00 0.00 0.01 0.01 0.01 0.00 0.00 0.00 0.00 0.00 0.00 0.00 0.00 0.00 0.00 0.00 0.00 0.00
0.00 0.00 0.00 0.00 0.00 0.00 0.00 0.00 0.00 0.00 0.00 0.00 0.00 0.00 0.00 0.00 0.01 0.01 0.00 0.00 0.00 0.00 0.00 0.00 0.00 0.00 0.00 0.00 0.00 0.00 0.00 0.00 0.00 0.00 0.00 0.00 0.00 0.00 0.00 0.00 0.00 0.00 0.00
0.00 0.00 0.00 0.00 0.00 0.00 0.00 0.00 0.00 0.00 0.00 0.00 0.00 0.01 0.01 0.00 0.01 0.02 0.01 0.01 0.01 0.01 0.00 0.00 0.00 0.00 0.00 0.00 0.00 0.00 0.00 0.00 0.00 0.00 0.00 0.00 0.00 0.00 0.00 0.00 0.00 0.00 0.00
0.00 0.00 0.00 0.00 0.00 0.00 0.00 0.00 0.00 0.01 0.01 0.00 0.00 0.00 0.01 0.01 0.00 0.00 0.01 0.00 0.00 0.00 0.00 0.00 0.00 0.00 0.00 0.00 0.00 0.00 0.00 0.00 0.00 0.00 0.00 0.00 0.00 0.00 0.00 0.00 0.00 0.00 0.00
0.00 0.00 0.00 0.00 0.00 0.00 0.00 0.00 0.00 0.00 0.00 0.00 0.00 0.00 0.00 0.00 0.00 0.00 0.00 0.00 0.00 0.00 0.00 0.00 0.00 0.00 0.00 0.00 0.00 0.00 0.00 0.00 0.00 0.00 0.00 0.00 0.00 0.00 0.00 0.00 0.00 0.00 0.00
0.00 0.00 0.00 0.00 0.00 0.00 0.00 0.00 0.00 0.00 0.00 0.00 0.00 0.00 0.00 0.00 0.00 0.00 0.00 0.00 0.00 0.00 0.00 0.00 0.00 0.00 0.00 0.00 0.00 0.00 0.00 0.00 0.00 0.00 0.00 0.00 0.00 0.00 0.00 0.00 0.00 0.00 0.00
0.00 0.00 0.00 0.00 0.00 0.00 0.00 0.00 0.00 0.00 0.00 0.00 0.00 0.00 0.00 0.00 0.00 0.00 0.00 0.00 0.00 0.00 0.00 0.00 0.00 0.00 0.00 0.00 0.00 0.00 0.00 0.00 0.00 0.00 0.00 0.00 0.00 0.00 0.00 0.00 0.00 0.00 0.00
0.00 0.00 0.00 0.00 0.00 0.00 0.00 0.00 0.00 0.00 0.00 0.00 0.00 0.00 0.00 0.00 0.00 0.00 0.00 0.00 0.00 0.00 0.00 0.00 0.00 0.00 0.00 0.00 0.00 0.00 0.00 0.00 0.00 0.00 0.00 0.00 0.00 0.00 0.00 0.00 0.00 0.00 0.00
MSLP
1011.72 1012.14 1012.68 1013.20 1013.71 1014.26 1014.73 1015.43 1015.98 1016.40 1016.74 1016.84 1017.15 1017.52 1017.99 1018.10 1018.69 1018.71 1018.87 1019.17 1019.39 1019.45 1019.97 1020.55 1020.97 1021.50 1021.88 1022.31 1022.70 1023.07 1023.38 1023.66 1023.95 1024.13 1024.47 1024.71 1024.83 1025.03 1025.30 1025.39 1025.58 1025.86 1026.08
1011.24 1011.77 1012.39 1012.99 1013.41 1013.88 1014.48 1015.06 1015.62 1016.20 1016.75 1016.93 1017.19 1017.43 1017.72 1018.03 1018.45 1018.51 1018.84 1019.20 1019.54 1019.63 1019.96 1020.48 1020.84 1021.41 1021.86 1022.24 1022.64 1023.04 1023.37 1023.74 1023.95 1024.24 1024.51 1024.83 1024.97 1025.21 1025.41 1025.66 1025.80 1026.00 1026.29
1010.68 1011.32 1011.90 1012.59 1013.02 1013.63 1014.23 1014.87 1015.54 1015.91 1016.45 1016.75 1017.16 1017.26 1017.58 1017.66 1018.19 1018.44 1018.74 1019.13 1019.58 1019.84 1020.06 1020.42 1020.91 1021.30 1021.64 1022.09 1022.49 1022.93 1023.27 1023.71 1023.95 1024.20 1024.61 1024.89 1025.08 1025.31 1025.47 1025.73 1025.98 1026.15 1026.38
1010.22 1010.90 1011.53 1012.17 1012.72 1013.41 1014.04 1014.66 1015.22 1015.82 1016.22 1016.64 1016.95 1017.34 1017.72 1017.71 1018.00 1018.45 1018.54 1019.03 1019.47 1019.80 1020.14 1020.37 1020.79 1021.30 1021.70 1021.87 1022.34 1022.77 1023.17 1023.60 1023.86 1024.17 1024.51 1024.91 1025.21 1025.45 1025.67 1025.85 1026.09 1026.27 1026.48
1009.87 1010.43 1011.08 1011.78 1012.45 1013.18 1013.85 1014.35 1014.94 1015.47 1016.04 1016.41 1016.80 1017.13 1017.45 1017.68 1017.77 1018.22 1018.54 1018.83 1019.24 1019.59 1020.00 1020.27 1020.62 1021.14 1021.53 1021.84 1022.23 1022.68 1023.05 1023.47 1023.71 1024.04 1024.44 1024.81 1025.17 1025.50 1025.78 1025.97 1026.17 1026.34 1026.53
1009.66 1010.14 1010.87 1011.51 1012.13 1012.98 1013.58 1014.02 1014.52 1015.14 1015.57 1015.98 1016.50 1016.78 1016.91 1017.24 1017.43 1017.97 1018.34 1018.65 1018.88 1019.41 1019.82 1020.14 1020.51 1020.91 1021.37 1021.70 1022.00 1022.39 1022.83 1023.13 1023.46 1023.81 1024.26 1024.66 1025.01 1025.34 1025.66 1025.92 1026.12 1026.27 1026.42
1009.40 1009.99 1010.66 1011.31 1011.95 1012.54 1012.94 1013.52 1014.08 1014.68 1015.16 1015.61 1016.11 1016.00 1016.55 1016.49 1017.32 1017.74 1017.96 1018.29 1018.74 1019.15 1019.59 1020.03 1020.41 1020.84 1021.14 1021.39 1021.76 1021.99 1022.33 1022.71 1023.16 1023.40 1023.78 1024.23 1024.65 1025.00 1025.32 1025.58 1025.81 1025.96 1026.08
1008.83 1009.52 1010.26 1010.99 1011.58 1012.17 1012.60 1013.03 1013.52 1013.97 1014.48 1014.91 1015.30 1015.65 1016.03 1017.13 1017.44 1017.61 1017.88 1018.16 1018.48 1018.90 1019.33 1019.78 1020.21 1020.59 1020.92 1021.19 1021.48 1021.74 1022.01 1022.30 1022.80 1023.11 1023.47 1023.81 1024.18 1024.54 1024.84 1025.09 1025.33 1025.57 1025.77
1008.28 1008.95 1009.70 1010.31 1011.09 1011.62 1012.00 1012.37 1012.91 1013.26 1013.81 1014.27 1014.59 1014.82 1015.28 1016.40 1016.86 1017.36 1017.70 1018.10 1018.49 1018.74 1018.90 1019.46 1019.85 1020.23 1020.63 1021.05 1021.32 1021.68 1021.91 1022.19 1022.42 1022.72 1023.07 1023.43 1023.86 1024.23 1024.48 1024.75 1024.97 1025.21 1025.41
1007.86 1008.56 1009.26 1009.88 1010.49 1010.97 1011.41 1011.71 1012.16 1012.60 1013.17 1013.46 1014.15 1014.16 1014.23 1014.71 1015.39 1016.92 1017.79 1018.06 1018.34 1018.36 1018.64 1019.12 1019.46 1019.83 1020.15 1020.62 1020.97 1021.27 1021.54 1021.85 1022.08 1022.25 1022.54 1022.96 1023.35 1023.74 1024.03 1024.16 1024.38 1024.55 1024.70
1007.55 1008.15 1008.64 1009.29 1009.86 1010.30 1010.70 1011.06 1011.62 1012.05 1012.36 1012.64 1013.11 1013.69 1014.09 1014.22 1014.32 1015.18 1016.60 1017.60 1018.20 1018.08 1018.17 1018.48 1018.84 1019.32 1019.70 1020.10 1020.45 1020.72 1021.03 1021.40 1021.74 1021.92 1022.19 1022.45 1022.72 1023.02 1023.35 1023.62 1023.78 1023.93 1024.10
1007.06 1007.63 1008.37 1008.78 1009.36 1009.66 1009.94 1010.32 1010.90 1011.23 1011.73 1011.91 1012.49 1012.93 1012.96 1013.28 1013.88 1014.53 1015.16 1016.27 1016.91 1017.43 1017.87 1018.10 1018.41 1018.71 1019.03 1019.46 1019.70 1020.01 1020.46 1020.84 1021.20 1021.53 1021.85 1022.06 1022.32 1022.51 1022.70 1022.82 1022.92 1023.06 1023.20
1006.65 1007.19 1007.82 1008.34 1008.75 1008.99 1009.34 1009.78 1010.23 1010.52 1010.98 1011.24 1011.72 1012.10 1012.30 1012.65 1012.88 1013.38 1014.10 1015.40 1016.08 1017.08 1017.52 1017.58 1017.69 1017.94 1018.30 1018.66 1018.89 1019.28 1019.77 1020.13 1020.45 1020.77 1021.18 1021.51 1021.71 1021.87 1021.96 1022.16 1022.28 1022.35 1022.38
1005.96 1006.63 1007.28 1007.74 1008.13 1008.52 1008.88 1009.22 1009.48 1009.74 1010.14 1010.52 1010.89 1011.42 1011.84 1012.16 1012.51 1012.79 1013.17 1014.32 1015.69 1016.40 1016.75 1016.64 1017.03 1017.29 1017.53 1017.88 1018.07 1018.40 1018.88 1019.37 1019.73 1020.08 1020.44 1020.81 1021.00 1021.15 1021.30 1021.47 1021.54 1021.68 1021.84
1005.62 1006.23 1006.84 1007.39 1007.64 1007.89 1008.19 1008.47 1008.66 1008.83 1009.46 1009.85 1010.15 1010.73 1011.05 1011.66 1012.03 1012.35 1012.70 1013.31 1014.00 1015.49 1016.05 1016.21 1016.27 1016.47 1016.83 1017.09 1017.28 1017.89 1018.20 1018.54 1018.99 1019.40 1019.83 1020.05 1020.19 1020.31 1020.48 1020.65 1020.83 1021.02 1021.12
1005.30 1006.05 1006.51 1006.91 1007.09 1007.26 1007.45 1007.72 1007.91 1008.21 1008.36 1008.81 1009.41 1010.03 1010.49 1011.08 1011.70 1011.92 1012.57 1012.91 1013.43 1014.29 1015.23 1015.21 1015.41 1015.46 1015.84 1016.15 1016.56 1017.04 1017.42 1017.82 1018.39 1018.88 1019.15 1019.29 1019.43 1019.72 1019.90 1020.07 1020.04 1020.05 1020.01
1005.35 1005.99 1006.27 1006.50 1006.65 1006.64 1006.68 1006.92 1007.01 1007.08 1007.32 1007.96 1008.49 1009.06 1009.65 1010.47 1011.25 1011.71 1012.36 1012.59 1013.09 1013.61 1014.54 1014.95 1014.92 1015.12 1015.41 1015.79 1016.10 1016.50 1016.91 1017.42 1017.70 1017.91 1018.40 1018.84 1019.11 1019.35 1019.64 1019.70 1019.68 1019.87 1019.89
1005.61 1005.90 1006.10 1006.33 1006.32 1006.28 1006.10 1006.14 1006.35 1005.76 1006.17 1006.97 1007.33 1008.21 1008.88 1009.66 1010.68 1011.40 1012.01 1012.05 1012.64 1013.14 1013.64 1014.29 1014.56 1014.89 1015.30 1015.58 1015.64 1016.46 1016.41 1016.88 1016.83 1017.71 1018.20 1018.55 1018.68 1019.01 1019.24 1019.45 1019.61 1019.60 1019.68
1005.48 1005.76 1005.97 1005.90 1005.98 1005.98 1005.83 1005.65 1005.40 1005.34 1005.68 1006.16 1006.88 1007.62 1008.28 1008.85 1009.93 1011.09 1011.73 1012.17 1012.66 1013.29 1012.72 1013.69 1014.51 1014.64 1015.28 1015.29 1016.33 1016.15 1016.42 1016.70 1017.45 1018.38 1018.80 1019.06 1019.27 1019.49 1019.62 1019.79 1020.14 1020.41 1020.47
1005.30 1005.50 1005.61 1005.69 1005.81 1005.74 1005.58 1005.05 1004.91 1005.02 1005.43 1005.88 1006.47 1006.78 1007.41 1007.98 1009.11 1010.47 1011.31 1012.20 1012.25 1012.99 1012.91 1013.62 1014.16 1014.86 1015.12 1015.63 1016.46 1016.54 1016.73 1016.88 1018.01 1018.89 1019.58 1019.87 1020.10 1020.42 1020.59 1020.66 1020.53 1020.63 1020.73
1005.23 1005.44 1005.68 1005.93 1005.88 1005.96 1006.06 1005.57 1004.35 1004.79 1005.14 1005.69 1006.07 1006.74 1007.22 1007.78 1008.67 1009.72 1010.79 1011.69 1012.30 1012.61 1013.01 1013.64 1013.94 1014.45 1014.63 1015.99 1016.22 1016.23 1016.58 1017.34 1018.54 1019.04 1019.82 1020.22 1020.65 1020.66 1021.04 1020.99 1021.23 1021.10 1021.27
1005.50 1005.75 1006.02 1006.25 1006.53 1006.64 1006.76 1005.96 1005.35 1004.97 1005.33 1005.63 1006.10 1006.62 1007.26 1007.87 1008.88 1010.14 1011.15 1011.59 1011.90 1012.40 1012.47 1012.80 1013.57 1014.48 1015.08 1015.34 1015.68 1015.93 1016.58 1017.59 1018.88 1019.42 1019.65 1020.59 1020.59 1021.09 1021.25 1021.11 1021.28 1021.55 1021.82
1006.88 1007.18 1007.53 1007.61 1007.72 1007.66 1007.16 1006.74 1006.20 1006.19 1006.66 1006.66 1006.91 1007.01 1007.84 1008.63 1009.48 1010.91 1011.70 1011.95 1012.66 1012.68 1012.75 1013.00 1013.78 1014.53 1015.06 1015.43 1015.87 1016.52 1016.93 1017.65 1018.80 1019.83 1019.66 1020.66 1021.03 1021.40 1021.54 1021.33 1021.68 1021.96 1022.05
1008.18 1008.64 1008.79 1008.76 1008.61 1008.53 1008.14 1007.57 1007.15 1007.66 1008.17 1008.32 1008.44 1008.24 1008.55 1009.36 1009.98 1010.93 1012.04 1012.97 1013.72 1013.96 1014.06 1014.13 1014.49 1015.42 1015.62 1016.03 1016.26 1016.52 1017.06 1018.27 1019.54 1020.12 1020.03 1020.50 1021.30 1021.43 1021.68 1021.93 1021.85 1022.02 1022.12
1009.43 1009.94 1010.05 1009.88 1009.61 1009.53 1009.31 1008.89 1008.28 1008.73 1009.24 1009.60 1009.71 1009.65 1009.73 1009.98 1010.76 1011.35 1012.14 1013.30 1014.38 1015.13 1015.40 1015.26 1015.60 1016.03 1016.15 1016.37 1016.70 1016.86 1017.64 1018.34 1019.42 1020.26 1020.22 1020.38 1021.01 1021.63 1022.20 1021.88 1022.04 1022.17 1022.21
1010.30 1010.92 1011.16 1011.21 1010.94 1010.70 1010.33 1010.05 1009.84 1010.17 1010.55 1011.00 1011.15 1011.30 1011.37 1011.55 1011.91 1012.30 1012.45 1013.05 1014.08 1015.51 1015.56 1016.20 1016.66 1016.86 1016.91 1017.07 1017.16 1017.51 1017.79 1018.17 1019.03 1020.18 1020.57 1020.79 1021.08 1021.08 1021.96 1022.16 1022.10 1022.26 1022.25
Thickness
5686 5681 5676 5670 5665 5659 5654 5650 5644 5640 5638 5639 5636 5635 5634 5636 5633 5635 5636 5637 5638 5640 5638 5636 5636 5633 5632 5631 5629 5627 5626 5624 5623 5622 5620 5619 5618 5617 5615 5615 5613 5611 5609
5683 5678 5672 5665 5660 5655 5650 5645 5640 5636 5632 5631 5631 5630 5631 5630 5630 5632 5631 5632 5632 5634 5634 5633 5632 5631 5630 5629 5627 5625 5623 5621 5620 5618 5617 5615 5615 5613 5612 5610 5608 5606 5603
5680 5675 5669 5662 5656 5651 5645 5639 5633 5631 5629 5626 5626 5626 5626 5627 5626 5627 5627 5626 5627 5628 5630 5630 5628 5628 5627 5626 5625 5622 5620 5618 5617 5616 5613 5612 5611 5609 5608 5607 5604 5602 5600
5677 5670 5665 5659 5653 5646 5640 5635 5631 5627 5624 5622 5621 5618 5618 5621 5621 5621 5623 5622 5623 5624 5625 5626 5625 5624 5623 5624 5622 5620 5618 5616 5615 5613 5611 5608 5607 5605 5603 5601 5599 5597 5594
5674 5668 5662 5657 5648 5642 5635 5632 5627 5623 5618 5617 5615 5613 5613 5615 5617 5617 5618 5619 5619 5621 5622 5622 5622 5621 5620 5620 5619 5617 5615 5612 5611 5610 5607 5604 5603 5600 5597 5596 5593 5591 5589
5668 5663 5658 5652 5645 5638 5633 5629 5626 5620 5617 5614 5610 5610 5612 5612 5613 5614 5615 5614 5615 5615 5617 5619 5619 5618 5617 5616 5616 5614 5612 5610 5608 5606 5603 5600 5598 5596 5593 5590 5587 5585 5583
5664 5658 5652 5647 5642 5636 5633 5629 5623 5617 5614 5611 5608 5609 5609 5611 5609 5610 5612 5614 5613 5611 5614 5615 5615 5615 5614 5613 5612 5612 5609 5606 5604 5604 5601 5598 5595 5592 5589 5586 5583 5581 5578
5661 5655 5649 5644 5638 5633 5630 5627 5621 5617 5614 5611 5608 5606 5605 5601 5602 5605 5609 5611 5611 5610 5610 5611 5611 5611 5610 5609 5608 5607 5605 5604 5601 5600 5598 5595 5593 5590 5587 5584 5580 5577 5574
5657 5652 5647 5642 5635 5631 5628 5625 5619 5616 5612 5610 5608 5606 5604 5600 5602 5602 5605 5606 5606 5607 5608 5607 5607 5607 5606 5604 5604 5603 5601 5600 5598 5596 5594 5591 5589 5585 5582 5579 5576 5572 5568
5653 5648 5644 5638 5634 5630 5628 5623 5619 5616 5611 5610 5606 5608 5611 5613 5609 5598 5598 5600 5602 5603 5604 5604 5605 5604 5604 5602 5601 5600 5598 5596 5594 5593 5590 5587 5584 5580 5577 5575 5571 5569 5566
5647 5645 5641 5636 5632 5629 5626 5622 5617 5614 5613 5612 5610 5606 5606 5610 5614 5609 5601 5598 5597 5600 5603 5604 5603 5601 5600 5600 5599 5598 5596 5593 5591 5590 5587 5584 5582 5579 5575 5572 5570 5568 5564
5644 5641 5636 5632 5629 5627 5625 5622 5617 5614 5610 5610 5607 5606 5610 5611 5611 5610 5608 5603 5602 5598 5598 5598 5600 5600 5600 5598 5598 5596 5594 5592 5589 5586 5583 5580 5577 5575 5573 5573 5571 5569 5566
5641 5637 5631 5628 5626 5625 5623 5619 5616 5614 5612 5610 5608 5607 5609 5610 5615 5614 5610 5604 5602 5594 5594 5598 5600 5600 5598 5597 5596 5595 5593 5592 5590 5587 5582 5579 5576 5575 5574 5572 5570 5569 5568
5638 5633 5629 5626 5624 5621 5618 5616 5614 5614 5611 5609 5608 5606 5607 5608 5611 5613 5613 5605 5594 5593 5594 5600 5598 5599 5599 5597 5596 5595 5593 5591 5588 5585 5582 5578 5575 5575 5573 5570 5569 5568 5566
5632 5629 5626 5622 5620 5618 5616 5614 5613 5612 5608 5607 5607 5604 5607 5606 5607 5609 5610 5609 5605 5593 5594 5595 5597 5597 5596 5596 5595 5592 5589 5589 5587 5584 5580 5576 5575 5574 5572 5571 5570 5568 5567
5629 5624 5621 5618 5617 5616 5613 5610 5609 5608 5608 5607 5605 5604 5604 5604 5603 5604 5602 5603 5602 5599 5593 5596 5597 5599 5597 5596 5595 5592 5589 5584 5582 5579 5576 5573 5574 5571 5570 5570 5570 5570 5569
5620 5617 5616 5614 5612 5611 5610 5607 5607 5607 5607 5604 5604 5604 5603 5600 5598 5598 5597 5598 5598 5597 5592 5591 5594 5596 5595 5593 5591 5588 5585 5582 5580 5578 5572 5570 5568 5568 5567 5566 5566 5564 5564
5612 5611 5610 5608 5607 5606 5606 5604 5602 5608 5606 5603 5604 5602 5600 5599 5594 5593 5592 5596 5594 5593 5592 5590 5590 5590 5587 5586 5586 5579 5579 5576 5576 5568 5567 5566 5566 5563 5562 5560 5559 5559 5558
5606 5605 5604 5604 5602 5600 5599 5598 5599 5601 5602 5601 5600 5599 5598 5599 5593 5588 5587 5586 5586 5583 5593 5588 5584 5583 5579 5580 5571 5573 5573 5570 5562 5561 5559 5556 5556 5554 5552 5550 5546 5544 5543
5601 5602 5601 5600 5597 5594 5592 5593 5596 5596 5597 5598 5597 5598 5598 5599 5594 5586 5583 5580 5583 5580 5584 5580 5578 5573 5572 5568 5561 5563 5563 5561 5551 5548 5543 5541 5539 5535 5535 5534 5535 5532 5530
5596 5595 5593 5590 5588 5583 5577 5579 5594 5594 5594 5592 5594 5593 5594 5593 5588 5584 5581 5578 5578 5578 5577 5574 5573 5570 5569 5558 5558 5558 5557 5550 5539 5538 5533 5529 5527 5526 5522 5522 5519 5519 5516
5585 5584 5583 5580 5575 5571 5564 5569 5579 5587 5588 5589 5589 5587 5585 5583 5578 5573 5569 5568 5571 5573 5576 5575 5570 5565 5559 5556 5553 5554 5550 5546 5537 5528 5526 5518 5518 5514 5512 5512 5509 5505 5500
5565 5563 5562 5561 5558 5558 5560 5562 5568 5572 5569 5574 5577 5580 5573 5570 5567 5559 5556 5557 5553 5555 5557 5563 5561 5554 5550 5545 5543 5539 5537 5534 5524 5514 5517 5507 5505 5501 5498 5497 5492 5487 5485
5547 5545 5545 5546 5547 5547 5549 5553 5555 5554 5552 5553 5555 5560 5561 5558 5558 5554 5548 5543 5539 5538 5540 5541 5540 5533 5533 5532 5530 5529 5525 5514 5505 5501 5503 5498 5490 5487 5482 5478 5476 5472 5469
5529 5527 5529 5532 5534 5535 5536 5539 5546 5543 5540 5539 5540 5543 5547 5548 5544 5543 5540 5532 5525 5521 5520 5524 5523 5521 5522 5520 5518 5517 5511 5507 5498 5489 5488 5487 5479 5472 5465 5465 5461 5456 5453
5515 5513 5513 5514 5518 5520 5524 5527 5530 5528 5525 5523 5523 5524 5526 5527 5527 5528 5529 5525 5519 5509 5511 5507 5506 5505 5505 5504 5503 5501 5498 5497 5489 5479 5472 5471 5466 5464 5455 5448 5446 5442 5438